NOAA 16 DEB, 42417

Orbit data source: Space-Track

NOAA 16 DEB, 42417 is space debris in SSO originally from a launch on Thu, 21 Sep 2000 UTC launched from the Air Force Western Test Range (AFWTR). Debris objects in space refer to the collection of defunct objects orbiting the Earth. Examples of debris include non-operational satellites, rocket bodies, and fragments generated from explosions, collisions, or faulty payload assembly.

Loading next visibility...
Identifier
42417, 2000-055TM
Orbit
SSO
Country
Flag of USUS
Related business
Manufacturer
Unknown
Mission
Spacecraft
Bus & Motor
Unknown
Mass
Unknown
Launch date (UTC)
2000-09-21 (25 years ago)
Launch vehicle
Unknown
Launch site
Air Force Western Test Range (AFWTR)
Object type
Payload
Rocket body
Debris
Shape & HBR
Unknown shape, 0.1 m
Radar Cross Section
Small (<0.1 m²)

Expand to show TLE details & history
Last TLE update: 1 day ago

TLE from 1 day ago
0 NOAA 16 DEB
1 42417U 00055TM  25301.01791784  .00006707  00000-0  26321-2 0  9992
2 42417  98.7499  13.0539 0023962  24.3892 335.8418 14.29507699497326
Epoch: 2025-10-28T00:25Z
TLE epoch observation values (Epoch: 2025-10-28T00:25:48.101Z)
Latitude
-0.00001°
Longitude
-30.00796°
Altitude
780.627 km
Speed
7.472 km/s
True Right ascension
00h 52m 12s
True Declination
0° 00' 00"
Sunlit
Object was in full shadow at epoch
Visualization orbit readout
Latitude
Unknown
Longitude
Unknown
Altitude
Unknown
Speed
Unknown
Apparent Right ascension
Unknown
Apparent Declination
Unknown
Sunlit
N/A
Visualization observer readout
Local Sidereal Time
23:48:22
Azimuth
Unknown
Elevation
Unknown
Doppler factor
Unknown
Orbital elements
Apogee altitude
807.702 km
Perigee altitude
773.347 km
Semi-major axis
7,168.662 km
Eccentricity
0.0024
Inclination
98.7499°
RAAN
13.0539°
Arg. of periapsis
24.3892°
True anomaly
335.72912°
Mean anomaly
335.8418°
Eccentric anomaly
335.78549°
Mean motion
3.57591 °/min
Orbital period
100.67 mins
BSTAR
0.0026321
Loading maneuver chart data...
Computing Atmospheric mass density...
Loading historical data...
Loading historical data...
Loading historical data...
Loading historical data...
Loading historical data...
Loading historical data...
Loading historical data...

Documentation

Showing up to 5 results
|